スローター-バーナム彗星

56P/Slaughter-Burnham (2005)

English version
Home page
Updated on May 8, 2006

---------------------------------------------------------------------

・ プロフィール

・ 写真集

・ 軌道要素

Epoch 2005 Jan. 30.0 TT = JDT 2453400.5
T 2005 Jan. 15.0207 TT                                  MPCW
q   2.535226             (2000.0)            P               Q
n   0.0853250      Peri.   44.0969      +0.8611242      -0.5072787
a   5.109970       Node   346.2714      +0.4182981      +0.7446000
e   0.503867       Incl.    8.1555      +0.2889496      +0.4338654
P  11.6
From 83 observations 1958-1997, mean residual 1".0.

・ 星図

・ 光度変化

        m1 = 8.5 + 5 logΔ + 15.0 log r

---------------------------------------------------------------------

軌道要素はMPCのEphemerides and Orbital Elementsに掲載されたものです。
星図は StellaNavigator Ver.2.0 for Windows (アストロアーツ 編著 / アスキー出版局刊) で作成したものです。
光度グラフはComet for Windowsで作成したものです。

---------------------------------------------------------------------

Copyright(C) Seiichi Yoshida (comet@aerith.net). All rights reserved.